[[{"header":{"parameterUnit":"m.s-1","parameterCategory":1,"la1":30.2991,"la2":30.254,"lo1":-89.0895,"lo2":-89.0444,"dy":0.0017,"dx":0.0017,"nx":28,"ny":28,"refTime":"2024-12-08T09:00:00:Z","depth":0,"parameterNumber":2,"parameterNumberName":"U-component_of_WINDS"},"data":[0,0,0,0,0,0,0,0,0,0,0,0,0,0,0,0,0,0,0,0,0,0,0,0,0,0,0,0,0,0,0,0,0,0,0,0,0,0,0,0,0,0,0,0,0,0,0,0,0,0,0,0,0,0,0,0,0,0,1.1048,1.1048,0,1.0967,1.0966,1.0965,1.088,1.0878,1.0877,1.0876,1.0791,1.079,1.0789,0,0,0,0,0,0,0,0,0,0,0,0,0,1.1129,1.1128,1.1049,1.1048,1.1047,1.0967,1.0966,1.0965,1.088,1.0878,1.0877,1.0875,1.0792,1.079,1.0789,0,0,0,0,0,0,0,0,0,0,0,0,0,1.1075,1.1127,1.1049,1.0994,1.0989,1.0967,1.0966,1.0965,1.088,1.0878,1.0876,1.0875,1.0792,1.079,1.0789,1.0814,0,0,1.0783,1.0783,0,0,0,0,0,0,0,0,1.1078,1.1072,1.1003,1.0998,1.0992,1.0932,1.0963,1.0914,1.088,1.0921,1.0876,1.0874,1.0839,1.0834,1.0822,1.081,1.0806,1.0783,1.0782,1.0781,1.0781,0,0,0,0,0,0,0,1.1082,1.1075,1.1016,1.1003,1.0995,1.0974,1.0964,1.0953,1.0891,1.0918,1.0911,1.0903,1.0836,1.0824,1.082,1.0805,1.0783,1.0782,1.0781,1.078,1.0809,1.0811,0,0,0,0,0,0,1.1094,1.1079,1.1019,1.1014,1.1032,1.0974,1.0963,1.0953,1.0891,1.088,1.0904,1.0899,1.0828,1.0822,1.0816,1.0842,1.0781,1.078,1.0779,1.0807,1.081,1.0812,0,0,0,0,0,0,1.1096,1.109,1.1022,1.1045,1.1034,1.0974,1.0963,1.0952,1.094,1.0881,1.087,1.0904,1.0826,1.0819,1.0815,1.0838,1.0779,1.0777,1.0805,1.0808,1.0811,1.0894,0,0,0,0,0,0,1.1099,1.1091,1.11,1.1046,1.1034,1.1023,1.0965,1.0952,1.0938,1.093,1.0878,1.0867,1.0824,1.0818,1.0814,1.0834,1.0776,1.0803,1.0807,1.081,1.0889,1.0899,1.0908,0,0,0,0,0,1.1102,1.1127,1.1101,1.1095,1.1044,1.1025,1.1018,1.0968,1.094,1.0949,1.0911,1.0869,1.0836,1.0819,1.0812,1.0833,1.0801,1.0806,1.0809,1.0884,1.0897,1.0908,0,0,0,0,0,0,1.1185,1.1118,1.109,1.1097,1.1067,1.101,1.102,1.0983,1.096,1.0954,1.0892,1.0881,1.0885,1.0858,1.084,1.0854,1.0813,1.0816,1.0872,1.0883,1.0893,1.0899,1.0775,0,0,0,0,0,1.1204,1.1195,1.1137,1.1149,1.1135,1.1081,1.107,1.1034,1.1001,1.0988,1.0949,1.0918,1.09,1.089,1.0871,1.0884,1.0872,1.0895,1.0905,1.0913,1.0917,1.0922,1.0932,1.0825,1.0825,1.0825,0,0,1.1244,1.1206,1.1204,1.1165,1.1137,1.1128,1.107,1.1063,1.1056,1.0986,1.0981,1.0952,1.0913,1.0918,1.0919,1.0896,1.0943,1.0918,1.0925,1.0924,1.0927,1.0938,1.0947,1.0828,1.0827,1.0827,0,0,1.1311,1.1282,1.1289,1.1263,1.1223,1.1186,1.1188,1.1136,1.1115,1.1108,1.1056,1.1046,1.1017,1.0992,1.0975,1.1033,1.0994,1.1028,1.1078,1.1084,1.1093,1.11,1.1121,1.113,1.1032,1.1032,1.1032,0,1.1365,1.135,1.1297,1.1293,1.1278,1.1215,1.1222,1.1199,1.1154,1.1145,1.112,1.1083,1.1052,1.1051,1.1065,1.1053,1.1053,1.1034,1.1096,1.1103,1.1109,1.1128,1.1136,1.1037,1.1036,1.1036,1.1035,0,1.1419,1.1409,1.142,1.1379,1.1364,1.1366,1.1313,1.1304,1.127,1.1236,1.123,1.1191,1.1163,1.116,1.1126,1.1154,1.1141,1.1107,1.1064,1.1124,1.1142,1.1149,1.1043,1.1041,1.104,1.1039,0,0,1.1536,1.1466,1.1471,1.1452,1.1403,1.1395,1.1393,1.1366,1.136,1.1332,1.1329,1.1306,1.1274,1.1256,1.1218,1.1223,1.1273,1.1188,1.1187,1.1206,1.1302,1.1328,1.1338,1.1246,1.1248,1.1248,1.1305,0,1.1595,1.159,1.1542,1.155,1.1541,1.1481,1.148,1.145,1.1418,1.1405,1.1369,1.1354,1.1313,1.1301,1.1304,1.1266,1.1291,1.1261,1.1243,1.1243,1.1256,1.1347,1.1374,1.143,1.1312,1.1313,1.1313,0,1.1664,1.164,1.1648,1.1599,1.1593,1.1593,1.1565,1.1553,1.1518,1.1494,1.1474,1.1431,1.1426,1.1386,1.1378,1.1359,1.1348,1.1329,1.133,1.1326,1.1283,1.1346,1.1446,1.1455,1.1323,1.1323,1.1322,0,1.1749,1.1719,1.172,1.1705,1.1649,1.165,1.1626,1.1589,1.1576,1.1551,1.1542,1.1517,1.1503,1.1484,1.1436,1.1411,1.1434,1.1389,1.1414,1.1415,1.1422,1.1422,1.1522,1.1415,1.1414,1.1414,1.1414,0,1.1821,1.1828,1.1758,1.1758,1.1765,1.1709,1.1717,1.1687,1.1655,1.1648,1.1594,1.1589,1.1526,1.1514,1.1476,1.1476,1.147,1.145,1.144,1.1455,1.1458,1.1448,1.1443,1.1416,1.1416,1.1416,1.1415,0,1.1917,1.1871,1.1868,1.1815,1.1801,1.1808,1.1763,1.1761,1.1726,1.1718,1.1713,1.1658,1.1641,1.1591,1.1561,1.1535,1.1546,1.1527,1.1559,1.1552,1.158,1.1579,1.1678,1.1688,1.1574,1.1575,1.1576,0,1.1966,1.197,1.1918,1.191,1.1889,1.1877,1.1864,1.181,1.1798,1.1758,1.1761,1.174,1.172,1.1695,1.1652,1.1629,1.1609,1.1645,1.1605,1.162,1.161,1.1611,1.1611,1.1654,1.1656,1.1657,1.1658,0,1.2058,1.2035,1.2018,1.1994,1.198,1.1958,1.1933,1.1929,1.1869,1.1858,1.184,1.1825,1.1795,1.1774,1.1744,1.1719,1.1679,1.1671,1.1676,1.1691,1.171,1.1701,1.1583,1.1669,1.1668,1.1667,1.1667,1.1666,1.2132,1.2134,1.2097,1.2081,1.2056,1.2034,1.203,1.1995,1.198,1.1951,1.192,1.1906,1.187,1.1826,1.1804,1.1791,1.177,1.1777,1.1778,1.1781,1.1788,1.1712,1.1786,1.1785,1.1785,1.1785,1.1784,0,1.2222,1.2196,1.2181,1.2148,1.2135,1.2099,1.2069,1.2061,1.2049,1.202,1.2002,1.1981,1.1961,1.1917,1.1893,1.1892,1.1873,1.1887,1.1887,1.1882,1.1809,1.1807,1.1903,1.1903,1.1903,1.1903,1.1903,1.1903,1.2267,1.2267,1.224,1.2228,1.2201,1.2188,1.2174,1.2154,1.213,1.211,1.2094,1.2065,1.2029,1.2002,1.1982,1.197,1.1964,1.1985,1.1966,1.1898,1.1887,1.1876,1.1875,1.1984,1.1984,1.204,1.2041,1.2041]},{"header":{"parameterUnit":"m.s-1","parameterCategory":1,"la1":30.2991,"la2":30.254,"lo1":-89.0895,"lo2":-89.0444,"dy":0.0017,"dx":0.0017,"nx":28,"ny":28,"refTime":"2024-12-08T09:00:00:Z","depth":0,"parameterNumber":3,"parameterNumberName":"V-component_of_WINDS"},"data":[0,0,0,0,0,0,0,0,0,0,0,0,0,0,0,0,0,0,0,0,0,0,0,0,0,0,0,0,0,0,0,0,0,0,0,0,0,0,0,0,0,0,0,0,0,0,0,0,0,0,0,0,0,0,0,0,0,0,5.964,5.9641,0,5.9719,5.972,5.9721,5.9723,5.9722,5.9721,5.972,5.98,5.9803,5.9806,0,0,0,0,0,0,0,0,0,0,0,0,0,5.9493,5.9496,5.964,5.9641,5.9642,5.9719,5.972,5.9721,5.9723,5.9722,5.9721,5.972,5.9799,5.9802,5.9806,0,0,0,0,0,0,0,0,0,0,0,0,0,5.9563,5.9496,5.964,5.9653,5.9655,5.9718,5.972,5.9721,5.9724,5.9722,5.9721,5.9719,5.9798,5.9802,5.9806,5.9863,0,0,5.982,5.9822,0,0,0,0,0,0,0,0,5.9559,5.9568,5.965,5.9652,5.9654,5.971,5.9697,5.9769,5.9724,5.9697,5.972,5.9719,5.9771,5.9777,5.9795,5.9866,5.987,5.982,5.9823,5.9825,5.9826,0,0,0,0,0,0,0,5.9554,5.9565,5.9671,5.9651,5.9654,5.9655,5.9663,5.971,5.9741,5.97,5.97,5.9709,5.9772,5.9791,5.9797,5.9871,5.982,5.9824,5.9827,5.9829,5.9996,5.9997,0,0,0,0,0,0,5.9547,5.9561,5.9669,5.9674,5.9602,5.9658,5.9668,5.9693,5.9741,5.9746,5.971,5.9709,5.9784,5.9792,5.98,5.9872,5.9825,5.9829,5.9832,5.9994,5.9996,5.9998,0,0,0,0,0,0,5.9543,5.9556,5.9666,5.9617,5.9631,5.9662,5.9691,5.9696,5.9715,5.9749,5.9754,5.9724,5.9783,5.9794,5.9848,5.9874,5.9831,5.9835,5.9992,5.9995,5.9997,6.0013,0,0,0,0,0,0,5.9539,5.9555,5.9576,5.9618,5.9634,5.9712,5.9693,5.9698,5.9723,5.9722,5.9763,5.9769,5.9783,5.9841,5.9852,5.988,5.9839,5.999,5.9993,5.9996,6.0011,6.0016,6.0021,0,0,0,0,0,5.9534,5.9577,5.9577,5.959,5.9661,5.9713,5.9723,5.9738,5.9725,5.9747,5.9769,5.9768,5.9869,5.9847,5.9859,5.9888,5.9988,5.9992,5.9996,6.0008,6.0015,6.0021,0,0,0,0,0,0,5.9537,5.9582,5.9584,5.9641,5.9674,5.9714,5.9742,5.9744,5.9781,5.9778,5.9796,5.9805,5.986,5.9879,5.9853,5.9947,5.9927,5.9934,5.9932,5.9939,5.9944,5.9939,5.9843,0,0,0,0,0,5.9544,5.9583,5.962,5.9668,5.9684,5.971,5.9734,5.9743,5.9777,5.9791,5.9817,5.985,5.9889,5.9915,5.9953,6.0013,6.0024,6.004,6.0045,6.0049,6.0055,6.0091,6.0099,6.0011,6.0011,6.0011,0,0,5.956,5.9589,5.9613,5.9669,5.9695,5.9736,5.9722,5.9764,5.9795,5.9797,5.9851,5.9871,5.9909,5.9967,5.9994,5.9985,6.0082,6.0054,6.0057,6.0061,6.0096,6.0104,6.0112,6.0013,6.0013,6.0012,0,0,5.9609,5.9635,5.9679,5.9706,5.9746,5.9764,5.9774,5.9815,5.9829,5.9883,5.9886,5.9923,5.999,6.0018,6.0041,6.0104,6.0105,6.0116,6.0143,6.0178,6.0185,6.0192,6.0217,6.0225,6.0121,6.0121,6.0121,0,5.9623,5.9684,5.97,5.9744,5.977,5.9775,5.982,5.9845,5.9896,5.9914,5.9903,5.999,6.0015,6.0082,6.0098,6.0115,6.0129,6.0111,6.0183,6.019,6.0196,6.022,6.0229,6.0123,6.0122,6.0122,6.0122,0,5.9701,5.9744,5.9774,5.9825,5.9853,5.9897,5.9921,5.9948,5.9956,5.9975,6.0031,6.0063,6.0109,6.0125,6.0132,6.0193,6.0187,6.0179,6.016,6.0205,6.0228,6.0237,6.0124,6.0124,6.0123,6.0123,0,0,5.9754,5.9815,5.9826,5.985,5.9896,5.9929,5.9974,6.002,6.0044,6.0079,6.0119,6.0177,6.0171,6.0197,6.0208,6.0238,6.029,6.0227,6.0229,6.024,6.0362,6.0369,6.0379,6.029,6.0292,6.0293,6.036,0,5.9811,5.9892,5.9908,5.9979,6.0019,6.0026,6.0065,6.0098,6.0117,6.0155,6.0176,6.0218,6.0206,6.0222,6.0253,6.0277,6.0315,6.0272,6.0328,6.033,6.032,6.0391,6.0398,6.0459,6.0369,6.037,6.0371,0,5.9887,5.9926,6.0,6.0044,6.0061,6.0097,6.0142,6.0177,6.0215,6.0227,6.0258,6.0265,6.0314,6.0292,6.036,6.033,6.0354,6.037,6.0373,6.038,6.0355,6.0402,6.0479,6.0489,6.0385,6.0384,6.0383,0,5.9921,5.9992,6.0047,6.0067,6.0118,6.0143,6.0165,6.0202,6.0229,6.0268,6.0287,6.0331,6.0355,6.0389,6.0409,6.0391,6.0477,6.0456,6.049,6.049,6.0509,6.0507,6.0593,6.0521,6.0521,6.052,6.052,0,5.9984,6.003,6.0063,6.0097,6.0149,6.0169,6.022,6.0242,6.0275,6.0314,6.0321,6.0358,6.0381,6.0421,6.0437,6.0492,6.0502,6.0515,6.0519,6.0515,6.0514,6.0532,6.0529,6.0523,6.0522,6.0522,6.0522,0,6.0031,6.0055,6.0116,6.016,6.0172,6.0209,6.0247,6.0281,6.0301,6.035,6.0363,6.0394,6.0442,6.0465,6.0524,6.0534,6.0598,6.0598,6.0586,6.0588,6.0622,6.0619,6.0723,6.0739,6.0655,6.0655,6.0656,0,6.007,6.0106,6.0155,6.0182,6.0206,6.0248,6.0277,6.0298,6.0328,6.0375,6.0404,6.0452,6.0492,6.0568,6.0597,6.0643,6.0645,6.0679,6.0652,6.0648,6.0649,6.0647,6.0652,6.0684,6.0684,6.0685,6.0686,0,6.0138,6.0149,6.019,6.0237,6.0271,6.0308,6.0345,6.0366,6.0393,6.0426,6.0476,6.0507,6.0568,6.0617,6.0665,6.0689,6.0693,6.0694,6.0705,6.0702,6.0695,6.0702,6.0601,6.0691,6.0691,6.069,6.069,6.069,6.0185,6.0218,6.0258,6.0305,6.0335,6.0369,6.0404,6.0429,6.0471,6.0523,6.0533,6.0586,6.0626,6.0691,6.0716,6.0759,6.0752,6.0766,6.0771,6.0775,6.0778,6.0687,6.0768,6.0767,6.0767,6.0767,6.0767,0,6.0255,6.0282,6.0324,6.0376,6.0413,6.0414,6.0455,6.0486,6.0533,6.0569,6.0609,6.0668,6.0716,6.0749,6.0798,6.0826,6.0829,6.0838,6.0837,6.0843,6.078,6.0767,6.0835,6.0835,6.0835,6.0835,6.0835,6.0835,6.0296,6.0354,6.0369,6.0442,6.0469,6.0522,6.0546,6.0578,6.0608,6.0673,6.0713,6.0734,6.077,6.0823,6.0867,6.0876,6.0894,6.0904,6.0913,6.0854,6.0847,6.084,6.0828,6.0907,6.0908,6.0972,6.0973,6.0973]}]]